Location: Palau
(42.3086°N, 3.1507°E)
Time: 23:28:37
(UTC+00:00)

Cosmos 1953 - Pass Details

Date: 26 May 2020
Orbit: 539 x 558 km, 82.5° (Epoch: 11 July)

Event Time Altitude Azimuth Distance (km) Brightness Sun altitude
Rises 00:15:12 0° 343° (NNW) 2,726 6.9 -26.1°
Reaches altitude 10° 00:17:29 10° 335° (NNW) 1,825 5.7 -26.1°
Enters shadow 00:20:01 30° 306° (NW) 998 3.8 -26.0°
